QPF
0.06 0.07 0.10 0.20 0.29 0.24 0.20 0.21 0.25 0.23 0.18 0.16 0.16 0.17 0.16 0.13 0.11 0.08 0.08 0.08 0.07 0.07 0.07 0.08 0.07 0.05 0.05 0.06 0.06 0.06 0.05 0.04 0.03 0.03 0.02 0.01 0.01 0.01 0.01 0.02 0.04 0.05 0.07
0.05 0.06 0.08 0.19 0.25 0.21 0.22 0.18 0.20 0.18 0.14 0.14 0.14 0.13 0.12 0.12 0.15 0.15 0.13 0.09 0.07 0.07 0.07 0.09 0.10 0.10 0.09 0.09 0.08 0.07 0.05 0.03 0.03 0.03 0.03 0.01 0.01 0.01 0.01 0.02 0.02 0.04 0.07
0.05 0.10 0.11 0.12 0.17 0.21 0.20 0.17 0.19 0.15 0.13 0.15 0.17 0.15 0.12 0.12 0.14 0.15 0.12 0.09 0.07 0.07 0.06 0.06 0.08 0.12 0.13 0.11 0.09 0.07 0.05 0.04 0.03 0.03 0.03 0.02 0.01 0.01 0.01 0.01 0.02 0.04 0.08
0.06 0.06 0.05 0.05 0.05 0.12 0.16 0.11 0.10 0.12 0.14 0.15 0.14 0.15 0.17 0.17 0.14 0.14 0.16 0.14 0.12 0.10 0.09 0.07 0.06 0.07 0.08 0.09 0.08 0.06 0.04 0.04 0.04 0.03 0.03 0.03 0.03 0.03 0.02 0.02 0.03 0.03 0.04
0.06 0.05 0.04 0.04 0.04 0.05 0.08 0.13 0.17 0.16 0.15 0.14 0.16 0.18 0.21 0.22 0.22 0.22 0.24 0.22 0.16 0.12 0.09 0.08 0.07 0.07 0.05 0.04 0.04 0.04 0.03 0.03 0.03 0.03 0.04 0.04 0.05 0.06 0.06 0.04 0.02 0.01 0.02
0.05 0.03 0.03 0.05 0.06 0.06 0.07 0.13 0.16 0.15 0.16 0.15 0.16 0.16 0.18 0.20 0.21 0.23 0.21 0.21 0.12 0.10 0.10 0.08 0.07 0.06 0.04 0.03 0.03 0.02 0.02 0.02 0.03 0.05 0.06 0.05 0.06 0.05 0.06 0.04 0.02 0.02 0.02
0.03 0.03 0.04 0.05 0.06 0.06 0.08 0.11 0.11 0.10 0.10 0.10 0.11 0.11 0.14 0.17 0.15 0.13 0.11 0.10 0.08 0.07 0.07 0.08 0.07 0.06 0.03 0.03 0.02 0.02 0.02 0.02 0.03 0.04 0.04 0.04 0.04 0.04 0.04 0.04 0.03 0.03 0.03
0.04 0.04 0.04 0.05 0.05 0.06 0.05 0.05 0.07 0.08 0.08 0.07 0.07 0.09 0.10 0.12 0.12 0.11 0.10 0.09 0.06 0.06 0.06 0.06 0.06 0.06 0.05 0.03 0.02 0.03 0.03 0.03 0.02 0.02 0.02 0.02 0.03 0.03 0.02 0.03 0.03 0.02 0.02
0.06 0.05 0.05 0.05 0.05 0.06 0.07 0.05 0.04 0.05 0.05 0.05 0.06 0.07 0.08 0.08 0.11 0.12 0.12 0.10 0.08 0.06 0.05 0.05 0.04 0.04 0.04 0.03 0.02 0.02 0.03 0.03 0.03 0.03 0.02 0.02 0.02 0.02 0.03 0.03 0.03 0.03 0.02
0.05 0.05 0.05 0.05 0.06 0.05 0.06 0.07 0.06 0.05 0.05 0.06 0.07 0.07 0.08 0.09 0.11 0.12 0.14 0.11 0.08 0.06 0.07 0.06 0.04 0.04 0.03 0.02 0.02 0.02 0.02 0.02 0.02 0.03 0.03 0.02 0.02 0.02 0.03 0.03 0.04 0.04 0.03
0.05 0.05 0.04 0.05 0.08 0.09 0.06 0.07 0.09 0.08 0.06 0.05 0.06 0.07 0.09 0.11 0.15 0.13 0.14 0.13 0.10 0.07 0.06 0.06 0.05 0.04 0.04 0.03 0.02 0.02 0.02 0.02 0.02 0.03 0.03 0.02 0.02 0.02 0.03 0.05 0.05 0.07 0.08
0.03 0.04 0.05 0.07 0.08 0.08 0.07 0.08 0.11 0.14 0.10 0.07 0.06 0.07 0.10 0.11 0.13 0.14 0.13 0.13 0.11 0.07 0.05 0.05 0.05 0.04 0.03 0.03 0.03 0.02 0.02 0.03 0.04 0.03 0.02 0.02 0.02 0.03 0.03 0.03 0.03 0.04 0.05
0.03 0.04 0.05 0.07 0.06 0.07 0.07 0.08 0.11 0.12 0.10 0.09 0.12 0.12 0.11 0.13 0.12 0.12 0.13 0.11 0.10 0.08 0.06 0.05 0.03 0.03 0.02 0.02 0.02 0.02 0.03 0.04 0.03 0.02 0.01 0.01 0.02 0.02 0.02 0.02 0.02 0.03 0.03
0.03 0.04 0.04 0.05 0.06 0.07 0.08 0.10 0.10 0.08 0.08 0.10 0.14 0.12 0.11 0.13 0.14 0.12 0.11 0.10 0.09 0.08 0.06 0.04 0.02 0.02 0.02 0.02 0.02 0.02 0.02 0.01 0.01 0.01 0.01 0.01 0.01 0.01 0.02 0.02 0.02 0.02 0.03
0.02 0.02 0.03 0.04 0.05 0.06 0.08 0.09 0.09 0.07 0.06 0.07 0.09 0.08 0.12 0.15 0.16 0.14 0.12 0.09 0.07 0.06 0.05 0.04 0.03 0.03 0.02 0.02 0.02 0.03 0.02 0.01 0.00 0.01 0.01 0.01 0.01 0.01 0.01 0.01 0.01 0.02 0.03
0.02 0.01 0.01 0.01 0.02 0.04 0.05 0.04 0.04 0.05 0.05 0.04 0.06 0.07 0.11 0.16 0.16 0.15 0.14 0.11 0.08 0.07 0.05 0.03 0.02 0.02 0.02 0.01 0.01 0.01 0.01 0.00 0.00 0.01 0.00 0.00 0.01 0.00 0.01 0.01 0.01 0.01 0.01
0.02 0.02 0.02 0.02 0.02 0.02 0.02 0.03 0.03 0.03 0.03 0.03 0.04 0.05 0.11 0.12 0.12 0.10 0.10 0.10 0.07 0.05 0.03 0.02 0.01 0.01 0.01 0.01 0.01 0.01 0.01 0.00 0.00 0.00 0.00 0.01 0.01 0.01 0.01 0.01 0.02 0.01 0.01
0.03 0.03 0.03 0.02 0.02 0.02 0.02 0.03 0.03 0.03 0.03 0.03 0.02 0.03 0.11 0.16 0.13 0.10 0.06 0.07 0.06 0.03 0.03 0.02 0.01 0.01 0.00 0.00 0.00 0.00 0.00 0.00 0.00 0.00 0.00 0.01 0.01 0.01 0.01 0.01 0.01 0.01 0.02
0.03 0.03 0.03 0.03 0.02 0.03 0.03 0.04 0.04 0.04 0.04 0.04 0.03 0.02 0.05 0.13 0.14 0.09 0.05 0.03 0.04 0.03 0.02 0.01 0.00 0.01 0.00 0.00 0.00 0.00 0.00 0.00 0.00 0.00 0.00 0.01 0.02 0.01 0.01 0.01 0.01 0.01 0.01
0.02 0.03 0.04 0.03 0.03 0.04 0.04 0.04 0.07 0.06 0.06 0.06 0.07 0.06 0.05 0.08 0.11 0.08 0.04 0.03 0.02 0.01 0.01 0.00 0.00 0.00 0.00 0.00 0.00 0.00 0.00 0.01 0.01 0.01 0.00 0.00 0.01 0.01 0.00 0.01 0.02 0.01 0.01
0.02 0.03 0.04 0.03 0.03 0.04 0.05 0.05 0.06 0.08 0.07 0.08 0.08 0.07 0.05 0.05 0.05 0.04 0.03 0.02 0.01 0.01 0.01 0.01 0.00 0.01 0.00 0.00 0.00 0.00 0.00 0.01 0.01 0.00 0.00 0.00 0.00 0.00 0.01 0.01 0.01 0.02 0.03
0.01 0.02 0.04 0.05 0.05 0.05 0.05 0.05 0.05 0.06 0.07 0.09 0.09 0.05 0.05 0.03 0.02 0.03 0.03 0.02 0.01 0.01 0.01 0.01 0.01 0.01 0.01 0.00 0.00 0.00 0.00 0.01 0.01 0.00 0.00 0.01 0.01 0.01 0.01 0.01 0.02 0.03 0.03
0.01 0.01 0.02 0.04 0.06 0.07 0.07 0.08 0.08 0.06 0.06 0.06 0.04 0.02 0.03 0.03 0.02 0.02 0.02 0.02 0.01 0.02 0.02 0.02 0.02 0.02 0.01 0.00 0.00 0.00 0.00 0.00 0.01 0.00 0.00 0.01 0.01 0.01 0.01 0.01 0.02 0.02 0.03
0.02 0.02 0.02 0.03 0.04 0.04 0.04 0.03 0.04 0.03 0.03 0.02 0.02 0.03 0.03 0.03 0.03 0.02 0.02 0.01 0.01 0.01 0.01 0.02 0.02 0.01 0.01 0.00 0.00 0.00 0.00 0.00 0.00 0.00 0.00 0.00 0.01 0.01 0.01 0.00 0.01 0.01 0.02
0.03 0.03 0.03 0.03 0.03 0.03 0.03 0.02 0.02 0.03 0.03 0.02 0.02 0.02 0.03 0.03 0.02 0.02 0.02 0.02 0.02 0.01 0.01 0.01 0.01 0.01 0.00 0.00 0.00 0.01 0.01 0.00 0.00 0.00 0.00 0.00 0.00 0.01 0.01 0.01 0.01 0.01 0.02
0.04 0.03 0.03 0.03 0.03 0.03 0.03 0.02 0.02 0.03 0.03 0.03 0.02 0.02 0.02 0.02 0.01 0.02 0.02 0.02 0.01 0.01 0.01 0.01 0.01 0.01 0.00 0.00 0.00 0.00 0.00 0.00 0.00 0.00 0.00 0.01 0.01 0.01 0.01 0.01 0.01 0.01 0.01
MSLP
1007.15 1007.29 1007.42 1007.54 1007.63 1007.72 1007.82 1007.94 1008.09 1008.29 1008.50 1008.70 1008.88 1009.01 1009.07 1009.08 1009.05 1009.00 1008.98 1009.01 1009.12 1009.33 1009.63 1010.03 1010.49 1010.98 1011.48 1011.96 1012.39 1012.75 1013.02 1013.19 1013.26 1013.22 1013.08 1012.83 1012.50 1012.10 1011.66 1011.23 1010.83 1010.51 1010.30
1007.42 1007.66 1007.85 1007.97 1008.01 1007.99 1007.95 1007.92 1007.95 1008.05 1008.22 1008.43 1008.66 1008.87 1009.02 1009.11 1009.13 1009.10 1009.06 1009.05 1009.09 1009.21 1009.43 1009.75 1010.14 1010.59 1011.07 1011.54 1011.99 1012.40 1012.73 1012.99 1013.14 1013.19 1013.12 1012.93 1012.63 1012.23 1011.76 1011.27 1010.79 1010.38 1010.08
1007.68 1008.01 1008.25 1008.38 1008.37 1008.24 1008.07 1007.89 1007.79 1007.80 1007.92 1008.14 1008.43 1008.73 1008.99 1009.17 1009.27 1009.30 1009.26 1009.21 1009.19 1009.23 1009.35 1009.56 1009.86 1010.23 1010.66 1011.11 1011.56 1012.00 1012.40 1012.74 1012.99 1013.13 1013.15 1013.04 1012.79 1012.42 1011.95 1011.42 1010.89 1010.41 1010.02
1007.84 1008.23 1008.52 1008.64 1008.59 1008.38 1008.09 1007.80 1007.58 1007.50 1007.58 1007.81 1008.15 1008.53 1008.90 1009.19 1009.38 1009.46 1009.45 1009.39 1009.32 1009.28 1009.31 1009.42 1009.63 1009.92 1010.29 1010.71 1011.16 1011.62 1012.07 1012.48 1012.82 1013.06 1013.18 1013.15 1012.97 1012.65 1012.19 1011.65 1011.09 1010.55 1010.09
1007.80 1008.23 1008.55 1008.69 1008.61 1008.35 1007.98 1007.59 1007.29 1007.15 1007.19 1007.42 1007.80 1008.24 1008.69 1009.08 1009.35 1009.49 1009.52 1009.46 1009.37 1009.28 1009.25 1009.29 1009.43 1009.67 1009.99 1010.38 1010.83 1011.31 1011.79 1012.26 1012.67 1012.99 1013.19 1013.24 1013.13 1012.86 1012.44 1011.91 1011.34 1010.77 1010.26
1007.53 1007.98 1008.32 1008.47 1008.39 1008.12 1007.71 1007.28 1006.93 1006.74 1006.76 1006.99 1007.38 1007.86 1008.35 1008.79 1009.11 1009.30 1009.36 1009.33 1009.24 1009.15 1009.09 1009.12 1009.23 1009.45 1009.76 1010.14 1010.60 1011.09 1011.60 1012.10 1012.55 1012.92 1013.18 1013.28 1013.23 1013.01 1012.63 1012.14 1011.59 1011.02 1010.50
1007.02 1007.47 1007.84 1008.02 1007.96 1007.71 1007.31 1006.88 1006.52 1006.32 1006.33 1006.54 1006.91 1007.39 1007.89 1008.34 1008.67 1008.88 1008.96 1008.95 1008.89 1008.83 1008.81 1008.86 1009.01 1009.26 1009.59 1010.00 1010.47 1010.98 1011.50 1012.01 1012.47 1012.85 1013.12 1013.26 1013.24 1013.07 1012.74 1012.31 1011.80 1011.27 1010.76
1006.32 1006.77 1007.16 1007.37 1007.37 1007.17 1006.83 1006.44 1006.11 1005.93 1005.92 1006.11 1006.45 1006.89 1007.34 1007.75 1008.06 1008.25 1008.34 1008.35 1008.34 1008.33 1008.39 1008.52 1008.76 1009.08 1009.49 1009.95 1010.45 1010.97 1011.49 1011.97 1012.41 1012.77 1013.02 1013.16 1013.16 1013.02 1012.75 1012.38 1011.94 1011.48 1011.03
1005.50 1005.96 1006.37 1006.64 1006.71 1006.59 1006.33 1006.02 1005.75 1005.60 1005.61 1005.77 1006.06 1006.42 1006.79 1007.12 1007.36 1007.51 1007.58 1007.61 1007.64 1007.72 1007.87 1008.13 1008.48 1008.92 1009.42 1009.96 1010.51 1011.04 1011.54 1011.98 1012.37 1012.67 1012.88 1012.98 1012.98 1012.87 1012.65 1012.36 1012.01 1011.65 1011.28
1004.67 1005.14 1005.59 1005.91 1006.06 1006.04 1005.88 1005.68 1005.49 1005.39 1005.41 1005.55 1005.79 1006.06 1006.33 1006.55 1006.70 1006.77 1006.81 1006.84 1006.91 1007.07 1007.33 1007.72 1008.21 1008.78 1009.40 1010.02 1010.61 1011.16 1011.63 1012.02 1012.33 1012.56 1012.70 1012.76 1012.74 1012.65 1012.48 1012.27 1012.03 1011.77 1011.52
1003.96 1004.46 1004.94 1005.32 1005.54 1005.61 1005.57 1005.46 1005.37 1005.34 1005.38 1005.51 1005.69 1005.87 1006.03 1006.14 1006.17 1006.16 1006.15 1006.16 1006.27 1006.49 1006.86 1007.37 1007.99 1008.68 1009.41 1010.11 1010.75 1011.30 1011.74 1012.08 1012.31 1012.46 1012.53 1012.53 1012.49 1012.40 1012.28 1012.15 1012.00 1011.86 1011.73
1003.47 1004.01 1004.52 1004.94 1005.22 1005.37 1005.41 1005.41 1005.40 1005.43 1005.51 1005.63 1005.77 1005.88 1005.94 1005.93 1005.87 1005.78 1005.70 1005.69 1005.81 1006.08 1006.52 1007.13 1007.85 1008.65 1009.45 1010.22 1010.89 1011.45 1011.86 1012.15 1012.31 1012.38 1012.38 1012.33 1012.26 1012.18 1012.10 1012.03 1011.97 1011.93 1011.90
1003.27 1003.85 1004.38 1004.82 1005.14 1005.34 1005.45 1005.51 1005.58 1005.66 1005.77 1005.89 1006.00 1006.06 1006.04 1005.95 1005.81 1005.64 1005.51 1005.48 1005.60 1005.89 1006.37 1007.03 1007.82 1008.68 1009.54 1010.34 1011.04 1011.59 1011.98 1012.22 1012.33 1012.34 1012.29 1012.20 1012.11 1012.02 1011.97 1011.95 1011.96 1012.00 1012.05
1003.40 1003.99 1004.54 1004.98 1005.29 1005.51 1005.64 1005.75 1005.85 1005.97 1006.10 1006.22 1006.31 1006.34 1006.28 1006.14 1005.94 1005.73 1005.57 1005.51 1005.61 1005.91 1006.41 1007.09 1007.90 1008.78 1009.66 1010.47 1011.17 1011.71 1012.08 1012.30 1012.38 1012.36 1012.27 1012.16 1012.05 1011.97 1011.93 1011.94 1011.99 1012.07 1012.18
1003.80 1004.41 1004.94 1005.35 1005.64 1005.83 1005.95 1006.05 1006.16 1006.28 1006.41 1006.53 1006.61 1006.62 1006.55 1006.39 1006.17 1005.95 1005.78 1005.71 1005.81 1006.10 1006.59 1007.26 1008.05 1008.92 1009.78 1010.58 1011.26 1011.79 1012.16 1012.36 1012.44 1012.41 1012.32 1012.21 1012.11 1012.03 1012.00 1012.02 1012.08 1012.18 1012.31
1004.41 1005.02 1005.50 1005.86 1006.09 1006.22 1006.29 1006.35 1006.41 1006.51 1006.62 1006.72 1006.79 1006.80 1006.73 1006.58 1006.39 1006.18 1006.03 1005.98 1006.09 1006.37 1006.84 1007.48 1008.24 1009.07 1009.89 1010.66 1011.32 1011.84 1012.20 1012.42 1012.51 1012.50 1012.44 1012.35 1012.26 1012.20 1012.17 1012.19 1012.25 1012.35 1012.46
1005.12 1005.69 1006.12 1006.40 1006.54 1006.59 1006.57 1006.55 1006.54 1006.57 1006.63 1006.70 1006.75 1006.76 1006.71 1006.61 1006.46 1006.32 1006.22 1006.21 1006.34 1006.64 1007.09 1007.70 1008.42 1009.19 1009.97 1010.70 1011.33 1011.84 1012.21 1012.45 1012.57 1012.61 1012.59 1012.54 1012.49 1012.45 1012.43 1012.45 1012.50 1012.57 1012.66
1005.80 1006.31 1006.67 1006.86 1006.91 1006.84 1006.72 1006.59 1006.48 1006.42 1006.40 1006.42 1006.44 1006.45 1006.44 1006.39 1006.32 1006.26 1006.25 1006.33 1006.51 1006.84 1007.30 1007.88 1008.56 1009.29 1010.02 1010.70 1011.31 1011.81 1012.19 1012.46 1012.64 1012.73 1012.77 1012.77 1012.77 1012.76 1012.77 1012.79 1012.82 1012.87 1012.93
1006.36 1006.80 1007.07 1007.17 1007.11 1006.94 1006.70 1006.45 1006.22 1006.05 1005.94 1005.88 1005.87 1005.88 1005.91 1005.93 1005.96 1006.01 1006.12 1006.30 1006.57 1006.95 1007.44 1008.03 1008.68 1009.37 1010.06 1010.71 1011.29 1011.78 1012.18 1012.48 1012.70 1012.86 1012.96 1013.02 1013.07 1013.10 1013.13 1013.16 1013.19 1013.22 1013.25
1006.76 1007.11 1007.29 1007.30 1007.14 1006.86 1006.51 1006.14 1005.79 1005.51 1005.30 1005.18 1005.13 1005.14 1005.20 1005.30 1005.44 1005.63 1005.87 1006.17 1006.55 1007.01 1007.55 1008.16 1008.81 1009.48 1010.13 1010.75 1011.31 1011.79 1012.20 1012.53 1012.79 1012.99 1013.15 1013.27 1013.36 1013.44 1013.49 1013.53 1013.56 1013.58 1013.59
1007.00 1007.26 1007.36 1007.28 1007.04 1006.67 1006.22 1005.74 1005.29 1004.90 1004.60 1004.41 1004.33 1004.35 1004.46 1004.64 1004.90 1005.22 1005.60 1006.04 1006.54 1007.10 1007.71 1008.35 1009.01 1009.66 1010.29 1010.88 1011.42 1011.89 1012.29 1012.63 1012.92 1013.15 1013.34 1013.50 1013.63 1013.73 1013.81 1013.87 1013.90 1013.92 1013.92
1007.14 1007.32 1007.34 1007.19 1006.88 1006.44 1005.91 1005.35 1004.81 1004.34 1003.98 1003.74 1003.64 1003.68 1003.83 1004.11 1004.47 1004.93 1005.44 1006.02 1006.64 1007.29 1007.97 1008.65 1009.32 1009.96 1010.57 1011.13 1011.64 1012.09 1012.48 1012.81 1013.09 1013.33 1013.53 1013.70 1013.85 1013.96 1014.05 1014.12 1014.16 1014.18 1014.18
1007.25 1007.36 1007.32 1007.11 1006.75 1006.26 1005.68 1005.07 1004.48 1003.97 1003.56 1003.31 1003.20 1003.26 1003.48 1003.83 1004.30 1004.87 1005.51 1006.20 1006.92 1007.65 1008.38 1009.09 1009.77 1010.40 1010.98 1011.51 1011.98 1012.39 1012.75 1013.06 1013.32 1013.54 1013.72 1013.88 1014.01 1014.12 1014.20 1014.26 1014.30 1014.32 1014.32
1007.40 1007.45 1007.37 1007.12 1006.73 1006.22 1005.62 1004.99 1004.39 1003.86 1003.45 1003.20 1003.12 1003.22 1003.49 1003.92 1004.47 1005.13 1005.87 1006.64 1007.43 1008.21 1008.96 1009.68 1010.34 1010.95 1011.50 1011.98 1012.41 1012.77 1013.09 1013.35 1013.57 1013.75 1013.90 1014.02 1014.12 1014.19 1014.25 1014.29 1014.32 1014.33 1014.33
1007.66 1007.67 1007.55 1007.28 1006.88 1006.37 1005.78 1005.16 1004.57 1004.07 1003.69 1003.46 1003.42 1003.57 1003.90 1004.39 1005.01 1005.73 1006.52 1007.33 1008.15 1008.94 1009.69 1010.38 1011.00 1011.57 1012.06 1012.49 1012.86 1013.18 1013.44 1013.65 1013.82 1013.96 1014.05 1014.12 1014.17 1014.20 1014.22 1014.23 1014.23 1014.22 1014.21
1008.02 1008.01 1007.87 1007.60 1007.21 1006.71 1006.15 1005.58 1005.03 1004.58 1004.25 1004.08 1004.10 1004.30 1004.67 1005.20 1005.86 1006.61 1007.41 1008.22 1009.02 1009.77 1010.48 1011.11 1011.68 1012.17 1012.60 1012.97 1013.28 1013.55 1013.76 1013.92 1014.05 1014.13 1014.18 1014.19 1014.19 1014.16 1014.13 1014.10 1014.07 1014.04 1014.01
Thickness
5759 5758 5755 5751 5747 5743 5738 5733 5728 5724 5722 5717 5712 5709 5707 5706 5705 5705 5704 5702 5700 5698 5696 5692 5690 5689 5686 5685 5684 5682 5680 5679 5679 5677 5676 5678 5681 5683 5683 5684 5684 5684 5685
5749 5748 5745 5742 5739 5736 5732 5727 5722 5718 5715 5711 5708 5707 5703 5700 5699 5698 5696 5695 5694 5692 5690 5686 5684 5682 5680 5678 5677 5675 5673 5672 5672 5668 5665 5664 5668 5673 5677 5677 5677 5678 5679
5742 5740 5737 5734 5731 5728 5724 5720 5716 5712 5709 5706 5702 5699 5695 5692 5689 5688 5687 5686 5686 5685 5682 5680 5677 5675 5673 5671 5669 5669 5666 5663 5664 5663 5660 5656 5655 5659 5665 5668 5669 5670 5671
5736 5734 5731 5727 5725 5722 5718 5713 5710 5706 5702 5699 5696 5691 5686 5682 5681 5679 5678 5677 5677 5675 5674 5672 5670 5668 5666 5664 5663 5662 5661 5658 5656 5655 5656 5655 5654 5651 5653 5657 5661 5663 5664
5731 5728 5725 5723 5719 5716 5711 5707 5703 5699 5696 5693 5690 5685 5680 5677 5674 5671 5669 5668 5667 5666 5666 5664 5663 5661 5659 5658 5656 5655 5654 5652 5650 5649 5648 5648 5647 5647 5645 5646 5650 5654 5657
5727 5722 5720 5717 5712 5710 5706 5701 5697 5693 5690 5687 5684 5680 5675 5670 5666 5662 5659 5659 5658 5658 5657 5656 5655 5654 5652 5651 5650 5648 5647 5646 5645 5644 5642 5641 5640 5640 5640 5640 5642 5644 5649
5720 5716 5712 5709 5707 5703 5700 5696 5690 5685 5682 5679 5676 5673 5670 5666 5661 5656 5653 5651 5649 5649 5649 5649 5648 5647 5646 5644 5643 5641 5640 5639 5638 5638 5637 5636 5636 5637 5635 5635 5636 5638 5641
5714 5711 5708 5705 5702 5698 5694 5690 5683 5678 5675 5671 5669 5667 5664 5660 5656 5652 5648 5645 5644 5643 5643 5642 5642 5641 5639 5638 5636 5634 5633 5633 5632 5632 5632 5631 5631 5632 5631 5631 5630 5630 5632
5707 5704 5701 5698 5696 5692 5688 5683 5678 5673 5669 5665 5662 5659 5657 5654 5650 5647 5643 5641 5639 5638 5637 5636 5635 5634 5632 5631 5629 5628 5627 5626 5625 5625 5626 5625 5626 5627 5627 5627 5627 5625 5625
5698 5696 5693 5691 5688 5686 5682 5677 5672 5668 5663 5659 5655 5653 5650 5648 5645 5641 5638 5635 5633 5632 5631 5630 5628 5627 5625 5624 5623 5622 5621 5620 5619 5619 5620 5620 5620 5621 5622 5622 5622 5622 5622
5691 5689 5687 5685 5682 5678 5674 5669 5666 5662 5657 5653 5650 5647 5644 5641 5638 5635 5633 5630 5628 5626 5625 5624 5622 5621 5619 5618 5617 5616 5615 5614 5613 5613 5614 5614 5615 5615 5615 5616 5616 5617 5617
5686 5683 5681 5678 5674 5669 5665 5661 5658 5655 5651 5648 5644 5641 5638 5635 5632 5629 5628 5625 5623 5621 5619 5618 5616 5615 5614 5612 5611 5610 5609 5608 5607 5607 5607 5608 5609 5609 5609 5609 5610 5611 5612
5679 5676 5673 5669 5666 5662 5658 5655 5651 5648 5646 5643 5639 5635 5632 5629 5626 5624 5622 5619 5617 5615 5614 5612 5610 5609 5608 5606 5605 5604 5603 5602 5601 5601 5601 5601 5602 5602 5603 5604 5604 5605 5606
5672 5668 5664 5660 5658 5656 5653 5650 5646 5643 5640 5637 5634 5630 5626 5624 5621 5619 5616 5614 5612 5610 5608 5606 5604 5603 5601 5600 5599 5598 5597 5596 5595 5595 5595 5595 5596 5597 5598 5599 5599 5599 5600
5666 5662 5657 5653 5651 5648 5646 5645 5642 5639 5635 5631 5627 5624 5622 5619 5616 5613 5610 5608 5605 5604 5602 5600 5598 5597 5595 5594 5592 5591 5591 5589 5589 5589 5589 5590 5590 5591 5592 5593 5593 5594 5593
5662 5658 5654 5650 5647 5643 5642 5640 5636 5633 5630 5626 5623 5620 5617 5614 5610 5607 5604 5602 5599 5597 5595 5593 5592 5591 5590 5589 5587 5586 5584 5583 5583 5582 5583 5583 5584 5585 5586 5587 5588 5588 5588
5657 5653 5649 5647 5644 5641 5638 5635 5632 5628 5624 5621 5618 5615 5611 5608 5605 5603 5600 5596 5594 5592 5589 5588 5586 5585 5584 5584 5582 5581 5579 5578 5577 5577 5577 5578 5578 5578 5579 5580 5581 5582 5583
5653 5649 5646 5642 5639 5638 5636 5633 5629 5624 5621 5618 5614 5611 5607 5604 5602 5599 5596 5593 5591 5588 5586 5584 5583 5581 5580 5579 5577 5576 5574 5573 5572 5572 5572 5571 5571 5572 5573 5574 5575 5576 5577
5650 5646 5643 5639 5636 5633 5631 5628 5624 5621 5618 5615 5612 5608 5606 5602 5599 5596 5593 5590 5588 5585 5583 5581 5579 5577 5575 5574 5573 5572 5569 5568 5567 5567 5567 5566 5566 5566 5567 5568 5568 5569 5570
5646 5643 5640 5636 5632 5629 5627 5624 5621 5618 5615 5613 5610 5607 5604 5600 5596 5593 5590 5588 5586 5584 5581 5579 5577 5575 5572 5571 5570 5568 5565 5563 5562 5562 5562 5562 5562 5562 5562 5561 5562 5562 5564
5642 5640 5637 5633 5630 5627 5624 5620 5617 5615 5613 5611 5608 5605 5602 5599 5595 5592 5589 5587 5584 5581 5578 5576 5574 5572 5571 5569 5568 5566 5562 5560 5559 5558 5558 5558 5559 5559 5558 5558 5558 5559 5560
5638 5635 5632 5630 5628 5626 5622 5618 5615 5614 5612 5609 5606 5602 5599 5597 5595 5591 5588 5585 5582 5578 5576 5574 5572 5570 5569 5568 5566 5564 5562 5559 5557 5556 5556 5556 5557 5556 5556 5556 5557 5557 5557
5634 5632 5629 5627 5625 5623 5621 5617 5615 5613 5611 5607 5604 5600 5598 5596 5593 5590 5587 5584 5581 5578 5575 5573 5570 5568 5567 5566 5565 5562 5560 5558 5556 5555 5555 5555 5555 5555 5555 5556 5556 5555 5554
5630 5629 5627 5624 5622 5621 5620 5618 5616 5614 5610 5606 5603 5600 5597 5594 5592 5589 5587 5584 5581 5579 5576 5573 5570 5568 5566 5564 5562 5560 5558 5557 5555 5554 5554 5554 5555 5555 5555 5555 5555 5554 5553
5628 5627 5625 5623 5621 5619 5618 5617 5616 5613 5609 5605 5603 5600 5597 5594 5591 5588 5586 5585 5583 5581 5578 5575 5572 5569 5567 5566 5564 5560 5557 5555 5553 5552 5552 5552 5552 5552 5553 5553 5554 5554 5553
5626 5625 5624 5623 5621 5619 5617 5617 5615 5613 5608 5605 5602 5599 5596 5593 5590 5588 5586 5586 5585 5584 5581 5579 5576 5573 5571 5569 5565 5562 5559 5557 5554 5551 5550 5550 5550 5550 5550 5552 5553 5554 5554